Wind_Gust
19 21 14 16 17 21 24 22 29 23 32 30 30 30 35 27 17 23 19 16 23 23 15 16 13 14 21 22 23 21 20 18 21 22 16 24 13 21 19 24 29 29 29 29 29 27 27 23 22 23 22 21 21 20 19 20 19 18 19 16 16 16 17 17 16 16 16 16 17 17 17 18 18 18 17 16 14 13 13 14 14 14 15 15 15 15 14 15 16 17 17 17 17 17 16 16 15
20 14 14 14 20 21 25 14 30 26 30 33 31 26 26 27 19 18 20 19 21 18 16 15 16 14 11 11 14 18 17 20 21 23 20 17 18 19 26 28 28 28 27 29 28 27 27 27 21 22 22 22 21 21 20 20 18 18 17 16 15 15 16 17 17 17 17 17 17 18 18 18 18 17 16 16 16 15 14 12 13 13 13 13 13 14 13 14 15 15 15 16 16 15 14 13 12
19 17 20 18 21 24 26 29 36 28 31 33 30 31 23 29 24 19 19 16 18 13 11 11 14 12 14 13 18 19 18 16 24 25 25 20 25 20 24 27 26 27 27 27 28 27 26 25 21 22 22 22 21 21 20 19 18 17 17 16 16 16 16 17 17 17 17 18 18 18 18 18 17 17 17 16 15 15 14 13 12 11 10 10 11 12 13 14 15 13 14 14 14 13 13 12 11
20 17 21 17 25 22 26 27 30 31 33 30 32 24 24 24 23 23 23 16 12 11 13 16 18 17 20 18 19 16 23 16 18 22 30 25 22 26 26 25 25 27 27 27 27 27 25 26 22 21 22 21 21 21 20 19 19 17 16 16 16 17 17 17 18 18 18 19 19 18 17 17 17 17 16 15 14 14 13 13 12 12 10 9 9 9 13 14 13 13 12 12 12 12 12 11 10
20 18 17 22 23 29 29 29 32 31 34 31 33 27 26 25 22 18 15 15 13 14 13 16 21 14 15 17 11 19 21 18 17 17 28 23 26 25 27 25 26 27 27 27 27 28 28 25 22 20 21 22 21 21 19 18 17 17 16 17 17 17 18 18 18 18 19 19 18 17 17 18 18 18 16 15 15 14 13 12 11 12 11 10 10 9 7 8 10 10 11 11 11 11 11 11 9
19 20 17 22 30 22 31 31 29 32 31 31 31 29 25 24 22 17 14 12 15 13 15 18 21 19 17 15 25 21 16 15 19 19 26 26 27 26 26 23 25 28 27 26 26 26 29 26 23 21 20 21 21 21 19 18 17 17 17 17 17 17 17 18 18 18 19 19 18 18 19 18 18 16 15 13 12 12 11 11 10 9 10 9 8 7 5 9 11 10 11 10 10 10 10 9 9
23 20 24 22 30 29 30 34 35 34 33 30 36 34 32 33 16 14 16 19 14 16 13 20 17 13 23 24 22 22 17 19 18 22 20 29 27 26 24 24 25 26 26 26 26 28 31 23 21 20 21 22 21 20 19 18 18 17 17 17 17 17 18 18 17 18 19 19 19 18 18 17 17 16 14 13 12 11 10 10 9 9 10 10 10 7 7 10 11 12 11 9 8 9 8 7 9
19 25 23 27 26 30 32 33 37 36 33 32 30 33 31 32 16 16 17 16 21 20 17 16 16 21 20 19 17 17 13 13 23 25 30 30 28 26 23 24 25 25 27 26 26 26 26 23 21 19 22 21 22 21 20 18 18 17 17 17 16 17 18 18 18 18 18 19 18 18 18 18 17 15 14 13 14 14 14 13 12 12 11 11 8 9 10 11 11 10 10 8 7 8 7 8 8
22 25 21 25 30 33 30 33 33 32 35 34 33 33 23 25 17 16 19 19 20 17 20 16 15 24 22 18 22 18 17 17 23 26 28 29 27 25 25 24 26 26 26 28 27 26 26 22 19 19 21 22 21 21 19 19 17 16 17 17 16 16 16 17 18 18 18 17 17 18 18 17 16 14 13 12 12 12 12 12 12 10 10 9 9 8 8 10 9 9 8 8 8 8 8 8 9
25 25 25 29 24 32 32 32 32 31 36 31 34 36 31 24 23 14 17 19 18 18 19 19 14 23 18 23 22 15 18 20 24 26 28 27 25 23 22 23 24 25 26 29 26 26 25 23 19 20 18 20 20 18 16 15 17 16 17 17 15 15 16 17 17 18 18 18 17 17 17 17 15 14 13 13 13 12 11 11 10 10 9 9 9 9 9 10 10 9 8 8 8 8 7 8 9
29 28 24 27 29 32 33 31 31 27 30 31 31 27 28 26 14 17 15 18 17 18 15 14 17 23 20 20 21 17 16 22 25 28 27 26 24 24 24 23 25 24 28 25 26 26 27 25 23 19 18 17 16 15 14 14 12 13 14 15 16 16 16 17 18 18 17 18 17 16 16 16 15 14 13 12 12 12 12 12 11 10 10 9 8 8 9 10 9 8 7 7 7 6 6 6 7
27 26 27 30 30 29 29 32 30 29 27 26 26 22 20 23 17 23 23 23 21 20 19 18 25 22 24 25 20 18 18 22 25 26 26 26 27 25 23 26 24 24 25 26 27 26 26 26 25 22 17 15 15 15 13 13 13 13 14 14 16 16 16 16 18 18 18 17 16 15 15 15 15 14 13 11 10 10 10 10 10 10 9 9 8 7 8 8 8 6 6 6 6 5 5 6 7
29 23 26 29 29 29 28 29 27 25 26 23 21 25 21 18 21 19 21 23 23 23 26 21 17 13 21 25 24 20 21 23 24 26 26 26 26 26 23 25 25 24 25 26 27 27 26 25 26 25 21 18 14 14 14 14 13 14 14 15 15 16 16 17 17 17 16 16 16 15 15 15 14 13 12 11 10 10 10 10 9 10 9 9 8 8 8 7 7 6 7 6 6 5 5 5 6
30 25 24 31 25 30 30 28 24 27 27 23 27 14 13 17 18 19 19 22 24 26 21 20 23 16 20 30 23 22 24 25 25 26 26 25 25 25 23 24 23 24 23 26 26 27 26 25 25 25 26 23 22 18 14 13 14 14 14 14 15 15 15 15 16 15 16 16 15 14 14 14 14 13 12 11 10 9 8 8 9 9 9 9 8 8 8 8 7 7 7 7 6 6 6 6 6
27 23 28 28 29 27 27 34 24 25 27 25 20 15 14 17 15 13 17 21 23 19 20 23 25 24 27 24 23 28 29 26 27 25 26 24 24 24 24 24 23 22 23 25 26 25 26 26 26 24 22 22 22 21 20 19 14 14 13 15 16 16 15 16 16 15 16 15 15 15 15 15 15 14 13 12 11 9 10 11 8 7 8 8 9 9 8 8 7 7 8 7 6 6 6 7 7
25 26 29 29 30 29 28 27 25 30 25 19 18 13 13 13 18 17 18 21 21 20 25 33 25 30 19 26 23 29 31 28 26 26 26 25 24 24 25 23 23 22 22 22 22 22 25 25 24 25 23 21 20 19 20 21 16 13 14 15 16 15 15 15 15 15 15 15 15 14 14 17 16 17 15 16 11 11 9 11 8 7 6 7 8 8 8 7 7 8 7 7 5 6 7 8 8
22 25 28 29 31 28 27 27 22 31 23 18 17 15 18 17 14 16 14 13 22 21 21 22 24 21 19 21 33 36 32 27 26 27 25 26 28 27 25 25 24 22 23 22 20 22 21 22 23 23 21 21 20 21 21 20 20 14 14 13 15 15 15 15 15 15 14 14 14 13 13 15 13 16 17 14 16 15 10 8 7 7 6 7 7 7 7 8 7 7 7 6 6 7 8 10 10
22 31 29 31 29 30 24 30 25 16 22 19 16 14 13 18 14 15 16 20 22 20 23 21 17 20 23 30 37 39 35 32 30 29 28 27 26 27 27 25 25 25 24 23 21 21 22 20 21 21 21 20 20 22 20 20 21 17 18 19 19 18 15 15 18 18 16 17 12 16 15 12 11 12 9 11 13 16 14 9 9 8 8 8 7 8 9 8 8 9 8 8 9 9 11 18 16
27 28 30 32 28 27 24 22 19 14 21 15 14 13 14 16 14 16 20 20 24 26 24 22 22 23 28 29 31 32 34 31 31 28 28 27 28 26 27 26 23 24 23 23 23 22 21 21 20 20 19 20 20 18 19 20 21 19 20 20 19 14 17 19 17 16 15 15 14 13 10 9 9 9 9 11 10 7 13 11 10 11 10 12 11 11 12 12 12 12 13 12 12 13 17 19 19
28 27 31 31 25 25 20 13 13 13 17 13 14 14 14 14 15 11 18 19 22 26 29 26 27 24 28 26 28 31 31 32 30 28 28 26 26 28 25 25 24 23 23 24 24 21 21 21 20 20 20 19 19 19 20 21 20 18 19 19 18 18 18 17 15 12 12 12 14 10 9 9 9 8 9 10 12 15 15 11 10 12 12 13 13 14 15 15 15 16 15 15 13 14 19 21 20
26 33 32 26 24 32 16 17 17 12 13 17 16 12 16 19 17 14 15 18 23 24 24 27 28 28 29 29 29 30 32 31 29 27 27 27 27 27 26 25 24 24 24 23 23 21 20 20 21 21 21 20 18 19 19 20 19 19 19 18 18 16 15 14 14 14 11 11 9 10 11 9 8 8 12 14 16 11 12 14 15 14 14 13 16 16 18 20 20 20 20 20 19 20 20 18 16
23 29 27 26 19 19 13 12 15 17 12 17 15 17 21 13 17 18 18 21 23 25 23 24 25 28 30 30 30 29 30 29 29 28 27 27 27 25 24 24 21 22 23 24 23 22 20 21 21 21 19 17 16 17 18 17 18 18 18 18 17 18 16 15 15 13 12 12 10 10 9 11 9 10 9 7 7 7 7 6 13 15 13 15 17 15 15 13 17 16 19 21 19 17 16 15 15
32 25 26 27 26 18 17 14 12 12 18 19 20 21 18 17 18 16 17 20 19 19 21 23 24 27 29 30 29 29 29 29 27 28 28 25 26 24 24 23 24 23 24 22 23 23 22 20 21 21 19 17 15 16 17 18 17 15 15 16 17 16 15 15 14 12 12 11 10 10 10 11 12 10 9 8 7 8 7 8 9 11 9 10 10 12 14 13 13 13 13 13 13 15 16 16 16
27 30 23 27 27 22 16 15 11 15 17 19 18 15 19 18 21 17 21 20 20 15 17 20 22 25 29 32 28 28 29 29 27 26 24 24 24 24 23 23 23 21 21 22 22 22 22 22 21 20 19 17 16 16 16 18 15 15 14 15 14 14 14 14 13 12 13 13 12 12 11 11 11 10 9 7 7 7 8 9 9 9 11 10 10 10 14 12 16 15 13 13 16 17 19 19 19
29 34 22 20 27 23 21 19 18 17 18 19 18 21 21 19 22 15 17 18 16 16 19 21 23 25 28 27 27 27 28 28 27 25 23 23 22 21 21 21 21 21 22 21 22 23 22 23 20 21 18 18 17 18 16 17 16 16 16 16 14 13 15 14 13 13 15 14 12 11 10 8 7 8 7 6 7 8 9 10 10 11 10 11 11 11 11 11 11 12 12 15 16 18 16 17 18
30 26 26 19 18 19 20 21 21 20 21 19 21 23 23 22 21 22 19 20 17 17 20 23 26 27 26 27 26 26 27 29 26 26 27 23 23 23 21 22 23 22 23 22 21 21 22 21 21 20 21 20 19 18 17 16 17 16 16 15 15 16 15 13 13 15 12 13 12 12 11 10 9 7 6 7 8 8 9 9 10 10 10 10 10 11 10 11 12 13 14 16 18 20 17 17 16
24 28 28 27 21 20 19 22 22 22 22 20 23 22 24 23 19 26 23 19 17 19 22 24 25 28 26 26 27 25 27 28 27 26 24 22 24 25 23 22 22 22 22 22 22 22 21 20 19 21 19 16 18 18 16 17 16 16 17 16 17 17 15 14 15 12 12 12 12 11 10 9 8 8 7 8 8 8 9 9 9 11 11 10 11 12 11 11 13 15 15 15 16 18 19 19 20
13 19 24 28 24 20 20 22 21 20 26 22 22 23 21 22 19 26 21 18 20 22 23 23 24 26 28 26 27 25 25 25 26 24 25 24 27 26 25 25 23 24 24 23 23 22 22 22 22 19 18 17 17 17 16 17 16 17 16 18 17 16 16 15 14 13 12 12 12 11 10 9 8 7 8 9 9 9 9 10 10 11 10 10 11 12 13 13 14 15 15 15 16 17 19 19 19
25 17 25 25 26 31 25 26 22 21 24 22 23 23 27 26 24 23 20 20 21 23 23 24 23 26 27 28 28 28 27 26 26 26 24 25 24 25 23 23 25 24 23 22 23 23 22 22 22 20 19 16 16 16 17 16 16 18 18 16 17 17 16 15 13 13 12 11 10 10 9 8 7 7 8 9 10 9 9 11 10 11 11 11 11 10 12 13 14 14 14 14 16 17 18 19 20
24 20 23 23 28 32 30 27 25 23 26 20 23 33 28 31 27 24 23 21 22 22 23 23 24 25 27 28 28 28 27 27 26 27 27 25 24 23 23 23 23 24 25 22 23 23 23 20 21 21 19 18 17 16 16 17 17 18 17 17 18 17 16 15 13 13 12 12 11 10 9 8 8 8 8 7 7 10 10 10 11 11 10 9 11 11 13 12 15 14 15 15 13 16 17 17 19
31 23 24 28 27 32 28 34 27 28 24 24 24 30 28 28 28 29 26 17 22 23 22 23 23 24 27 29 27 28 28 27 26 25 25 23 23 23 22 23 24 23 24 22 23 23 21 21 21 21 20 19 18 17 17 17 16 18 18 17 18 17 16 15 14 13 12 12 12 11 9 8 7 7 7 8 9 10 10 10 10 10 10 10 13 11 13 14 14 15 15 16 16 17 17 17 18
28 31 32 28 31 23 28 31 30 32 29 24 25 31 30 26 29 29 26 21 19 18 22 23 24 24 26 28 27 28 27 25 25 24 23 24 25 25 24 25 24 24 24 23 23 24 22 20 20 19 20 20 20 20 18 19 18 17 16 14 16 14 15 14 14 14 12 11 10 11 10 8 7 7 7 8 9 10 10 11 10 10 11 13 13 13 13 15 14 16 14 15 17 18 18 18 18
30 31 23 30 29 29 25 30 28 30 29 28 31 31 32 25 24 26 24 23 24 23 24 23 22 24 24 25 28 27 27 25 26 25 25 25 27 27 25 22 24 24 24 24 24 23 22 21 20 21 21 20 20 20 19 18 18 17 16 15 15 14 14 13 13 12 12 10 11 12 10 8 7 8 9 9 9 10 11 11 12 12 12 12 13 13 14 15 14 16 15 15 16 20 19 19 19
32 31 31 25 30 30 25 27 28 31 29 31 33 36 20 26 24 22 21 24 25 25 23 21 23 25 26 25 25 27 27 28 30 29 26 24 24 23 23 21 22 21 22 24 23 24 23 22 21 21 21 21 21 21 19 18 18 17 17 17 14 15 14 13 12 12 12 12 11 11 10 9 7 8 9 9 10 11 12 12 12 11 12 13 14 15 15 15 15 15 16 16 18 19 21 21 20
28 30 29 29 28 30 24 32 31 32 31 27 32 35 20 21 19 22 22 21 22 24 25 23 25 24 25 22 23 23 26 28 28 26 25 22 23 20 22 22 22 21 22 23 23 22 22 21 21 20 20 19 19 18 18 18 17 15 16 15 15 15 14 13 12 13 13 12 12 11 10 8 8 8 9 9 10 11 11 11 12 11 12 13 14 16 17 15 15 15 16 19 18 19 20 20 20
25 26 29 26 26 32 33 26 30 33 30 30 30 37 29 25 26 24 24 23 24 25 24 24 24 22 22 20 21 22 23 24 22 21 20 19 19 19 21 22 21 22 23 23 22 22 21 20 19 21 19 20 18 18 18 18 19 19 18 16 15 14 15 13 13 13 12 13 12 10 10 8 8 8 8 9 9 10 12 12 12 12 13 13 14 15 16 16 16 17 17 17 19 19 19 19 18
25 25 27 29 25 26 27 20 24 30 29 31 29 31 33 24 27 28 26 25 28 26 26 25 25 26 23 19 24 23 22 22 19 20 19 17 20 22 19 20 20 20 22 22 22 21 21 22 20 20 18 18 18 19 19 18 20 18 16 15 16 15 15 14 12 12 13 14 11 12 10 8 8 9 9 10 10 10 12 12 12 12 13 13 14 15 16 17 17 17 19 18 19 21 20 18 18
22 24 28 31 27 28 27 19 21 29 27 28 28 30 32 22 25 29 31 29 28 25 25 25 25 25 23 24 23 25 22 18 19 20 20 20 21 22 19 13 19 22 20 21 20 19 19 16 17 16 17 17 17 16 15 17 16 15 17 16 15 18 17 16 16 14 13 13 11 11 10 9 10 10 10 11 11 11 12 13 13 13 14 14 14 15 17 17 18 18 17 20 19 21 23 19 20
22 25 26 29 28 27 25 21 22 27 28 27 29 31 32 23 22 29 32 32 28 28 25 24 24 23 24 24 25 22 22 20 20 21 17 23 16 16 15 18 19 17 20 20 13 15 18 15 15 14 14 16 15 15 16 15 17 18 17 16 16 17 16 15 14 15 14 13 12 10 10 9 9 9 9 9 10 10 11 12 13 14 14 15 15 16 16 17 17 17 18 20 22 21 22 19 18
24 24 26 31 25 31 31 22 21 25 35 26 28 30 28 21 22 32 30 35 30 27 27 24 22 23 21 23 21 21 24 24 22 25 25 22 18 15 15 20 20 20 16 14 17 16 19 18 19 18 18 15 17 17 14 17 18 14 18 16 14 15 17 16 15 13 13 12 11 10 10 9 9 8 9 10 8 10 11 12 12 13 14 13 15 16 15 17 16 17 18 18 20 24 25 23 19
25 25 24 27 27 24 22 29 25 22 30 30 28 30 27 25 26 26 29 35 36 33 27 25 22 21 18 20 21 19 19 23 24 24 27 27 24 19 21 18 18 21 17 14 15 18 17 19 18 18 18 16 15 14 17 17 17 17 16 17 16 18 15 15 14 14 12 10 11 10 10 9 9 9 10 10 12 11 11 11 13 13 13 13 14 15 16 17 18 18 18 18 19 22 26 24 22
28 25 24 22 23 24 21 26 27 29 31 32 28 37 34 26 27 27 26 25 24 24 24 24 24 22 21 22 23 21 18 19 24 26 25 22 24 23 22 20 18 17 18 15 15 13 16 17 18 17 16 15 17 15 15 16 15 18 17 17 17 16 16 14 13 12 12 11 10 9 9 10 10 10 11 11 11 12 11 11 11 12 13 14 14 15 16 16 16 17 18 19 19 20 22 23 25
26 31 25 24 24 22 21 24 27 29 34 33 31 34 31 28 30 31 28 25 26 26 24 25 25 26 24 23 23 23 23 21 19 22 23 22 24 27 26 25 22 22 21 17 14 14 14 16 16 16 15 15 17 16 20 18 20 24 14 12 12 14 15 15 12 10 9 9 9 9 9 9 11 10 10 10 10 10 11 11 11 11 12 13 13 14 15 15 17 17 18 18 19 20 19 21 22
30 22 28 21 17 23 24 25 26 26 23 28 33 38 30 33 32 28 31 28 27 28 26 26 25 27 24 23 23 23 26 23 24 26 26 26 25 26 29 26 23 22 20 16 16 14 15 17 17 16 16 16 15 16 19 19 23 19 13 13 13 12 12 14 12 10 9 8 9 9 9 9 9 9 9 10 10 10 10 11 11 12 13 13 14 14 14 15 16 17 17 18 18 19 18 20 21
23 24 29 23 18 19 19 26 27 26 24 28 35 33 36 29 30 29 33 34 32 29 29 29 29 29 27 25 24 24 25 25 26 28 30 30 28 26 29 26 23 22 21 20 21 18 17 19 18 17 17 16 17 16 15 19 22 14 14 14 14 13 14 12 10 9 10 9 9 8 8 8 7 8 9 10 10 11 11 11 12 12 13 13 14 14 14 16 16 17 18 19 19 20 18 17 20
23 20 29 24 20 20 20 23 27 28 26 29 30 34 39 29 27 34 32 33 36 35 32 29 29 32 31 29 25 25 24 24 25 27 26 25 26 25 26 27 23 21 20 19 18 19 17 20 23 20 18 18 17 15 15 16 15 15 16 14 13 12 11 11 10 10 8 8 9 7 8 9 9 9 9 10 12 13 13 12 13 13 13 14 14 16 16 17 17 17 18 18 18 18 17 17 18
18 18 24 28 26 24 21 24 27 27 25 30 26 31 33 34 30 32 35 38 33 35 33 31 29 29 29 28 27 27 26 25 25 26 25 23 23 24 25 26 24 21 19 19 17 19 18 18 20 22 20 18 17 16 16 16 16 15 16 14 11 11 11 10 10 8 8 7 8 8 7 8 10 11 9 9 11 13 12 13 14 14 13 14 16 15 16 17 17 17 18 18 17 18 19 18 18
20 29 28 28 27 24 23 25 23 31 32 28 29 28 32 36 28 30 32 28 32 32 34 36 34 31 35 30 30 27 25 26 26 26 26 25 23 23 23 26 24 24 22 21 20 19 18 18 21 21 21 20 18 18 18 17 17 17 14 12 11 10 9 10 10 9 9 9 8 8 8 9 10 9 10 10 13 14 13 13 13 13 14 15 16 16 15 16 17 17 18 20 20 19 17 19 18
27 26 30 32 33 32 32 32 34 33 29 25 32 30 32 37 26 25 30 32 33 32 31 36 35 33 32 28 28 27 25 26 27 27 27 26 24 24 24 26 26 26 25 22 21 21 17 18 20 21 20 20 20 19 17 17 16 15 13 12 12 10 9 11 11 10 8 9 9 9 9 10 11 10 12 13 13 13 14 13 14 15 15 15 15 15 15 16 16 16 17 17 20 20 20 20 19
32 34 33 35 36 34 28 33 27 26 25 20 33 30 35 19 31 21 24 28 29 29 27 30 37 34 33 31 29 27 25 26 27 27 27 27 25 24 26 26 28 27 24 24 22 22 20 18 19 21 21 19 17 17 18 17 15 13 12 12 11 12 12 11 11 11 10 10 10 11 10 11 10 11 12 13 14 14 14 14 14 15 16 15 15 15 15 15 16 18 17 19 19 20 20 20 20
36 26 32 29 30 37 28 34 33 30 28 26 21 40 37 26 22 25 23 22 25 28 29 26 30 36 33 29 30 30 24 26 27 27 27 27 27 24 25 25 27 29 27 27 24 22 20 21 20 20 22 20 17 17 15 15 14 12 12 12 12 11 13 13 12 11 10 11 11 12 12 12 12 12 13 13 14 14 15 15 15 15 16 16 16 17 17 16 17 18 17 20 22 22 22 23 22
32 30 26 31 33 25 28 22 26 31 34 29 31 32 21 27 16 17 24 18 19 18 23 20 32 32 29 30 32 29 27 28 27 26 25 26 25 24 24 24 25 28 28 27 26 25 21 21 21 19 20 18 16 14 15 14 13 12 11 11 12 12 13 13 11 11 11 11 12 12 13 12 13 12 13 14 15 15 16 16 15 16 16 16 17 17 17 17 17 18 19 20 21 21 22 23 24
35 33 37 31 21 25 21 16 15 11 24 33 21 27 27 19 17 18 20 22 23 21 23 24 28 31 30 30 32 30 27 28 28 28 26 26 23 24 23 22 22 25 25 24 23 24 22 21 19 19 18 16 14 14 15 15 13 13 13 13 13 13 13 12 13 13 13 13 13 12 13 14 12 13 13 14 15 16 16 15 15 15 16 16 17 17 18 17 18 18 20 20 21 22 22 22 24
33 39 30 22 25 27 28 27 21 24 29 27 28 28 30 30 29 29 23 24 25 25 25 25 27 29 30 30 33 32 29 27 28 29 28 29 29 28 26 24 23 23 25 25 22 21 22 20 19 19 18 17 15 15 14 13 14 14 15 14 14 13 13 12 12 13 13 13 13 14 13 14 14 14 15 14 14 15 15 15 15 15 16 16 17 18 18 19 19 19 19 20 22 20 20 20 20
26 31 22 39 31 27 28 28 28 29 29 30 34 27 31 33 25 28 29 28 26 27 27 27 29 34 31 32 32 32 30 30 31 32 31 29 29 29 26 24 23 23 23 26 25 24 23 22 21 19 17 16 15 14 13 14 14 15 14 13 13 13 14 13 12 13 14 14 14 16 15 14 14 14 15 15 15 16 16 15 15 15 17 18 18 19 19 19 19 19 20 20 22 21 20 20 21
28 23 36 31 21 27 28 30 20 29 23 22 30 31 31 29 30 25 26 28 27 27 28 28 29 34 32 30 32 32 32 31 31 30 29 29 28 28 28 28 27 25 25 24 23 23 24 22 21 19 17 15 14 13 13 14 13 14 14 14 13 14 13 14 14 14 15 15 15 15 15 14 14 14 15 15 16 16 16 16 16 18 18 19 20 20 20 20 20 21 20 21 23 22 22 21 22
35 31 34 35 28 22 26 26 29 29 27 26 23 28 31 27 22 27 27 27 26 27 29 29 29 30 31 30 31 32 32 31 30 29 29 29 28 27 27 25 25 25 25 24 23 24 22 21 21 19 18 16 15 13 13 13 14 14 13 13 12 13 14 15 14 15 15 15 15 15 15 14 15 16 16 15 15 16 17 17 17 19 19 20 20 21 21 21 21 21 21 20 21 22 22 23 23
31 31 30 29 30 31 32 28 28 30 31 27 26 28 20 20 22 21 26 25 26 26 27 27 27 31 31 32 30 31 31 29 29 27 29 28 26 27 26 26 25 27 26 23 24 24 21 20 20 19 18 17 15 14 14 14 13 13 13 13 13 13 15 15 15 15 15 16 15 15 14 15 15 16 15 16 17 16 17 19 19 19 20 20 21 21 21 21 21 21 20 20 21 22 23 23 23
Wind_Speed
12 10 7 8 7 9 10 8 10 6 9 12 12 12 13 15 8 12 8 8 10 11 4 5 5 6 8 9 6 5 9 4 8 3 2 7 5 11 12 15 19 17 16 15 15 14 16 17 18 18 18 17 17 16 15 15 15 15 15 13 13 12 11 11 12 11 11 12 13 13 14 14 13 13 12 11 11 10 11 11 11 11 10 10 9 10 10 11 10 11 11 11 11 10 10 9 9
9 6 7 7 7 7 8 4 7 10 10 13 13 13 11 14 8 8 9 8 10 5 6 6 7 5 4 4 4 10 7 9 7 7 7 7 9 9 18 18 17 17 15 14 14 14 15 16 18 18 18 18 17 16 16 15 14 15 14 13 12 11 11 12 11 12 13 13 14 14 14 14 14 13 12 12 12 12 10 9 10 10 10 9 8 8 10 10 9 9 10 10 10 9 9 8 6
8 7 8 7 8 8 8 9 12 11 12 14 12 13 12 15 13 8 6 7 9 6 4 3 7 4 4 6 8 7 6 9 12 11 8 11 13 10 16 18 16 16 16 13 14 14 13 15 17 18 18 18 17 17 16 14 14 14 13 13 11 11 11 11 12 13 13 14 14 14 14 14 13 13 12 12 12 11 10 9 7 8 8 8 7 7 10 9 8 8 8 9 9 8 8 7 5
10 8 8 6 8 7 9 7 12 12 13 13 13 12 12 12 8 5 13 5 2 2 3 7 7 8 10 9 7 8 5 4 5 10 8 10 9 11 15 17 16 14 14 13 14 13 13 17 18 17 18 17 17 17 15 14 13 13 13 12 11 11 11 11 12 13 14 14 14 14 14 14 13 12 12 11 11 10 10 9 9 9 8 7 5 7 10 10 8 7 8 8 8 8 7 6 6
9 8 7 8 8 9 9 9 12 12 14 11 13 13 15 14 11 7 4 8 5 4 5 6 7 5 7 7 1 2 8 9 7 7 9 9 13 13 16 16 15 15 15 15 14 14 15 20 18 16 16 17 18 16 15 14 14 13 13 12 12 12 12 12 12 14 14 14 14 13 13 13 13 13 12 11 11 10 9 8 7 7 6 7 7 7 5 7 7 6 8 7 7 7 7 6 7
9 8 7 8 8 4 7 11 11 14 13 13 14 13 14 13 12 8 5 3 6 3 7 10 8 4 4 6 10 5 6 4 8 7 10 12 16 16 16 13 14 15 15 14 14 12 15 21 19 17 16 17 17 16 15 15 13 13 13 12 12 12 12 12 12 14 14 14 14 14 13 13 13 12 11 9 9 8 8 8 6 5 5 5 6 5 3 6 5 7 7 6 6 6 6 6 7
7 7 7 8 9 9 12 14 16 15 15 16 15 17 19 19 4 5 1 9 7 5 6 9 8 4 9 9 8 9 8 10 7 8 10 17 17 17 15 13 15 15 16 13 12 15 19 19 16 15 16 17 17 15 15 14 14 13 14 13 13 12 12 12 12 13 14 14 14 13 12 13 13 12 11 9 9 8 7 7 7 6 4 3 4 4 4 6 8 7 6 5 4 4 4 4 5
8 9 6 10 8 9 13 14 17 15 15 18 17 19 19 20 4 6 8 7 8 7 6 6 6 8 8 9 5 6 3 5 12 13 18 17 18 17 14 13 14 16 15 14 13 14 19 18 16 15 16 17 17 16 16 14 14 14 14 14 13 12 13 13 13 13 13 14 13 13 13 13 12 11 10 10 10 10 10 9 8 8 6 4 2 1 6 8 6 5 4 3 3 2 3 3 5
8 9 7 9 12 9 12 14 15 16 18 19 19 20 18 15 9 6 10 9 11 6 11 6 6 10 8 5 10 7 6 8 11 18 18 19 17 15 12 15 15 14 15 16 14 14 15 17 15 15 16 16 16 16 15 14 14 13 14 14 13 12 12 13 13 13 13 12 13 13 13 13 12 11 10 9 9 9 8 8 7 6 5 4 2 2 4 5 4 3 3 1 2 2 2 3 3
8 8 9 8 8 14 14 13 14 13 17 18 20 22 19 12 13 5 8 10 7 8 10 11 6 9 6 13 10 2 6 11 14 16 17 17 16 14 14 14 14 16 16 16 13 13 13 18 14 15 14 15 15 13 13 13 14 13 14 14 13 13 13 13 12 12 13 13 12 12 13 13 12 11 10 9 9 8 8 7 6 6 6 4 2 1 1 3 3 2 1 1 1 2 1 1 3
9 9 9 9 12 13 14 14 15 14 17 17 18 16 18 14 4 4 6 9 7 9 7 2 6 11 9 8 6 6 9 12 14 16 16 16 16 14 14 13 14 16 16 16 14 14 14 15 18 15 13 13 12 12 11 11 10 10 11 12 13 13 13 13 13 12 12 12 12 12 12 13 12 11 10 9 10 9 8 7 7 6 6 4 3 2 2 2 2 1 0 1 3 3 2 0 2
10 9 9 12 12 12 13 13 15 14 15 15 13 12 9 12 5 8 12 13 10 10 9 9 8 11 8 9 6 8 11 10 14 15 15 15 14 16 14 13 14 15 16 16 16 14 14 14 14 16 12 12 12 11 11 11 11 11 12 12 13 13 13 13 12 12 11 11 11 11 12 12 11 11 10 9 8 7 7 7 6 6 5 5 3 4 4 4 1 2 1 2 3 3 2 2 1
11 9 11 10 11 12 13 15 12 13 13 11 8 11 11 7 10 10 10 11 11 11 12 9 9 4 9 11 9 11 11 13 14 15 16 14 14 13 13 14 15 15 16 16 16 16 16 14 13 13 13 13 11 11 11 11 11 11 12 12 12 13 13 13 12 12 11 11 11 11 11 11 11 10 10 9 8 7 7 6 6 6 5 5 4 3 2 1 1 2 1 2 2 3 3 3 3
11 9 9 11 11 14 13 12 11 12 10 10 12 3 3 5 7 10 7 11 12 13 9 8 11 6 11 11 10 10 11 16 16 16 14 15 13 13 15 13 15 14 14 16 15 15 15 14 13 13 14 13 12 11 11 11 12 12 12 12 13 12 12 12 12 11 10 10 11 11 11 11 11 10 10 9 8 7 6 6 6 5 6 6 4 4 3 2 2 1 1 1 2 3 4 4 4
11 9 10 10 11 12 13 13 11 10 11 12 2 7 3 6 8 3 9 10 11 9 8 7 9 10 8 12 9 11 15 17 17 16 15 14 15 14 14 13 13 13 13 15 15 14 15 15 14 13 12 12 13 10 10 10 12 11 11 12 13 13 12 12 12 11 11 10 10 11 11 11 11 11 11 10 9 7 7 8 6 5 5 6 5 4 4 3 2 1 1 1 2 3 4 5 5
9 9 9 11 12 13 11 12 13 15 9 6 9 4 3 3 5 8 7 9 8 6 6 10 13 8 8 15 13 16 20 18 16 15 15 15 15 14 14 14 12 12 12 12 12 12 14 14 13 12 11 12 10 10 11 11 11 11 11 12 13 12 13 12 12 11 11 10 10 10 11 10 10 9 10 8 9 9 4 5 6 4 4 5 5 5 5 4 3 2 2 1 2 4 5 6 6
8 9 11 11 14 14 12 11 9 11 11 6 5 6 8 7 6 6 5 5 10 11 11 10 9 8 10 2 18 22 21 17 16 17 15 14 13 12 12 11 11 11 10 12 10 11 12 13 14 11 12 12 11 11 10 11 11 11 11 11 12 12 12 12 12 12 11 11 10 10 10 7 7 7 7 6 12 7 8 7 5 4 4 4 4 4 5 5 4 4 4 4 4 5 6 8 8
8 11 11 13 12 15 11 14 11 7 10 9 5 6 5 6 6 5 7 10 10 11 7 8 6 9 8 10 21 25 23 20 18 18 16 15 12 13 12 12 11 12 11 10 11 12 11 11 12 12 11 12 11 9 8 9 9 10 10 10 10 11 11 12 11 10 11 8 10 9 6 5 4 5 3 7 5 8 8 7 7 6 6 6 5 6 6 6 6 6 6 6 7 7 9 7 8
10 10 11 14 12 11 13 11 10 4 10 4 5 5 5 8 3 3 6 9 11 14 12 13 11 13 17 18 17 19 21 20 18 17 18 17 15 16 14 12 12 12 11 10 10 12 11 10 11 12 11 11 12 10 8 9 11 10 11 10 9 10 11 11 9 9 8 7 7 6 4 3 2 3 3 4 3 5 7 8 7 9 8 9 9 9 9 9 10 10 10 9 9 10 8 8 8
13 11 12 13 13 13 12 5 6 4 8 3 3 5 4 6 3 2 7 10 11 13 11 14 14 12 16 15 16 16 19 21 18 18 18 17 16 16 14 14 12 12 12 11 11 10 10 10 11 12 11 10 10 9 9 9 9 8 9 8 8 8 9 8 8 6 5 6 6 4 3 2 2 2 4 6 6 6 7 8 8 8 9 8 11 8 10 10 12 13 12 12 10 8 8 9 9
10 13 12 10 13 17 6 9 8 5 5 8 8 3 4 10 9 4 7 9 9 10 13 13 14 15 18 18 18 18 18 19 19 18 17 17 16 14 13 13 12 12 11 11 11 11 11 11 11 12 12 11 10 8 9 9 9 8 8 8 8 7 7 6 5 6 5 4 3 3 4 3 2 2 5 5 7 4 5 5 6 6 6 6 11 8 7 8 10 9 8 8 8 8 9 8 7
9 14 15 14 9 10 5 4 7 9 5 9 7 9 9 3 2 8 9 9 7 9 11 13 14 16 18 19 18 17 19 19 19 19 18 17 17 16 14 13 12 12 12 11 12 12 11 12 12 10 10 10 9 8 9 8 9 8 8 8 8 8 7 7 7 5 5 5 3 3 2 3 3 2 2 0 1 1 2 1 4 5 6 5 7 6 6 5 8 6 8 8 8 8 7 7 6
13 12 15 16 15 8 9 6 5 5 8 10 11 11 10 5 7 7 8 10 9 5 12 14 14 17 18 17 18 19 19 19 18 18 18 16 17 15 14 13 12 12 11 11 12 11 11 12 12 12 10 8 9 9 8 8 7 7 6 7 7 7 6 7 6 5 5 4 3 3 3 4 4 3 2 3 2 3 1 3 2 3 3 0 5 3 4 6 5 5 6 5 6 6 7 7 7
13 11 12 15 16 13 8 3 3 7 9 10 8 8 8 8 12 8 11 9 11 8 4 9 13 15 18 18 18 19 19 18 18 17 15 15 16 16 14 13 12 11 11 12 11 11 11 13 12 12 10 9 8 8 8 8 7 7 6 6 6 6 6 5 4 5 5 4 4 4 4 4 3 2 3 2 2 2 1 3 1 2 3 3 1 3 4 2 1 3 4 6 7 7 7 10 8
14 15 13 11 16 14 11 9 7 8 10 9 9 12 11 11 11 7 8 7 8 8 2 8 12 14 17 17 18 18 18 18 17 16 13 12 14 13 12 10 12 11 12 12 11 12 13 12 12 12 10 10 9 9 8 7 7 7 7 7 6 7 6 6 5 5 6 6 6 5 3 1 2 3 2 1 2 1 2 2 3 4 3 4 4 4 3 3 2 3 3 4 6 7 7 8 8
15 15 15 11 8 10 10 12 12 11 8 9 12 14 13 12 12 12 10 10 8 9 9 7 14 14 16 16 16 16 17 19 17 16 16 13 14 15 12 11 12 12 13 12 11 11 12 12 12 12 12 11 9 9 8 7 7 7 8 7 6 8 6 5 6 6 5 5 4 4 2 2 3 1 1 1 2 1 2 3 3 3 3 3 4 4 3 4 5 4 6 6 6 8 8 6 6
12 17 17 16 12 11 11 13 13 13 11 11 13 13 13 14 10 9 13 11 9 10 12 13 13 15 15 14 14 15 17 18 17 15 14 13 14 14 13 13 13 13 13 13 11 11 10 11 11 12 11 9 9 9 7 8 8 8 8 7 7 7 7 6 6 5 5 5 5 5 4 3 2 1 1 2 1 2 2 2 2 3 2 3 3 5 4 4 5 6 6 6 7 8 7 8 9
2 7 14 17 14 11 11 13 12 10 12 13 12 13 12 13 9 11 8 10 10 12 13 14 15 16 14 16 15 14 15 14 14 14 15 15 12 13 14 13 13 14 13 13 11 11 12 12 12 11 10 9 9 9 8 8 8 8 8 7 8 7 7 7 6 5 5 5 5 5 4 3 3 1 1 2 2 2 2 2 2 2 3 2 3 4 5 5 6 6 7 7 7 7 8 8 8
15 9 12 15 16 13 15 14 12 12 11 12 13 13 15 14 13 14 8 11 12 13 13 15 14 14 14 15 14 14 13 15 14 13 14 13 13 13 14 13 13 13 11 13 12 12 13 13 12 11 10 10 9 8 8 7 7 8 8 7 7 7 7 7 6 5 5 4 4 4 4 3 2 2 1 1 2 2 2 3 2 2 2 3 3 5 6 5 5 6 6 7 7 7 8 8 8
14 10 10 11 14 15 18 16 14 14 12 11 12 13 12 17 16 15 13 11 13 13 13 13 12 13 13 14 14 14 14 14 15 14 14 13 13 13 14 14 14 13 12 11 13 13 11 9 9 9 10 9 9 8 7 7 7 7 7 7 8 8 7 6 6 5 5 5 5 4 3 2 2 0 0 1 2 2 3 3 3 3 2 3 4 4 5 4 5 6 6 6 6 7 7 8 7
12 12 11 11 11 13 17 16 16 16 12 14 13 12 12 15 14 18 12 4 13 13 11 11 11 12 13 14 14 14 16 15 15 15 16 14 13 13 14 13 14 13 11 12 14 14 12 10 9 8 9 9 9 8 8 8 8 7 7 7 7 8 6 6 6 5 5 5 4 4 3 3 1 1 1 0 2 3 3 3 2 2 2 4 4 4 4 5 5 6 6 7 7 7 7 8 8
11 11 13 11 13 9 16 19 19 16 14 15 14 12 13 8 16 18 16 5 7 8 12 12 12 12 14 13 14 14 14 14 15 16 15 15 15 13 14 15 14 14 14 13 13 13 12 11 10 10 10 10 9 8 8 7 8 7 6 7 6 6 5 6 5 6 5 4 4 4 4 3 2 1 0 1 2 3 3 3 2 2 3 4 4 5 5 6 5 6 6 7 7 8 8 8 8
12 13 11 13 13 13 11 18 17 19 13 17 18 10 15 13 8 14 16 13 11 10 12 13 13 13 13 12 12 13 13 14 14 15 16 15 15 15 13 14 14 15 13 13 13 12 12 12 10 11 11 11 10 9 9 8 7 8 7 6 5 2 3 4 5 5 5 4 4 5 4 3 2 1 0 1 2 2 3 3 3 3 3 4 4 5 6 6 6 6 7 7 8 9 9 10 9
12 13 12 11 14 14 8 14 15 18 17 15 19 15 5 13 12 11 11 13 14 12 12 11 12 13 15 13 13 11 13 14 16 16 16 15 12 14 14 11 12 12 14 14 14 12 12 11 11 10 10 10 9 9 9 8 6 6 1 3 3 5 7 5 5 5 4 5 4 4 4 3 2 1 0 1 2 3 3 3 4 4 4 4 4 5 6 6 6 6 7 7 7 8 9 10 10
12 13 13 12 14 17 12 13 16 18 20 15 19 20 10 11 8 11 9 10 11 11 10 13 14 13 12 10 8 10 11 14 14 12 13 11 11 12 11 13 12 12 11 13 12 12 11 10 9 10 10 9 8 7 6 4 6 2 3 3 4 7 5 5 5 5 5 5 5 5 4 3 2 1 1 2 3 3 4 3 4 5 5 5 5 5 6 6 6 7 8 9 8 8 9 10 10
13 14 13 13 11 14 14 11 15 20 16 15 18 17 11 10 11 9 9 11 10 11 11 11 11 10 11 8 8 9 8 3 7 8 7 4 5 7 9 10 10 9 10 11 12 11 11 10 9 9 7 6 6 5 5 2 2 5 3 3 5 6 5 6 5 5 5 5 5 4 4 3 2 2 3 4 3 4 4 5 5 5 5 5 6 7 7 7 9 10 9 10 10 9 9 9 9
14 13 15 15 10 13 15 8 14 17 14 17 16 17 18 13 13 11 10 8 10 12 14 13 12 12 11 10 13 12 11 6 6 11 10 9 10 10 8 5 6 7 4 6 9 9 9 8 7 6 2 4 4 5 4 3 1 2 3 5 6 5 5 5 5 5 5 5 5 5 4 3 3 3 2 3 3 3 4 4 5 5 5 6 6 7 8 9 9 9 9 8 10 11 10 9 9
12 13 15 14 14 10 15 9 11 15 13 14 16 16 19 12 15 16 16 15 13 15 13 13 13 12 9 13 13 15 13 6 5 7 11 11 6 8 8 5 9 6 4 3 5 5 5 8 6 2 3 3 3 5 4 2 1 3 4 7 5 8 7 6 6 5 5 5 5 5 4 3 3 4 4 4 3 4 4 4 5 5 6 6 6 7 8 8 9 9 9 9 8 10 10 9 9
12 10 12 13 12 13 14 11 11 11 13 11 17 15 17 13 12 12 12 12 11 10 11 10 13 11 10 10 11 14 14 12 8 9 9 7 8 8 9 11 11 8 5 2 3 4 6 6 6 7 5 5 3 3 1 3 1 7 6 6 7 4 5 6 6 6 6 6 5 5 4 4 3 3 3 3 3 3 4 4 5 4 5 6 6 7 7 8 8 9 9 9 10 9 10 9 9
11 10 11 13 11 15 13 8 10 14 12 11 15 16 13 10 13 17 10 11 12 12 11 12 12 12 11 10 10 12 15 14 14 14 14 12 10 9 9 11 9 9 8 3 1 6 5 6 6 7 6 6 5 4 2 2 3 7 10 9 5 5 7 7 7 6 6 5 5 4 4 3 3 3 3 3 3 4 4 5 5 5 6 6 6 6 7 8 8 8 9 9 9 10 9 10 10
12 13 11 11 15 9 5 10 12 12 15 18 13 13 11 11 12 13 17 21 16 13 14 14 11 11 10 11 10 10 12 14 14 14 16 16 15 12 12 10 6 5 8 5 6 6 5 9 7 6 7 6 5 7 3 3 3 9 7 2 7 7 6 6 6 5 4 4 4 4 4 3 3 3 4 4 5 4 4 4 4 5 5 6 6 6 7 7 9 8 9 9 9 9 11 10 10
12 14 14 11 14 13 12 8 14 11 13 16 12 11 12 12 15 8 11 9 13 15 14 13 13 11 12 13 14 11 9 11 14 16 16 13 12 15 14 12 9 9 9 6 5 5 4 6 6 9 8 6 6 6 5 5 2 8 8 6 6 6 6 6 5 5 5 4 4 4 4 3 4 4 3 4 4 4 4 4 4 4 5 5 5 5 6 7 7 8 8 9 9 10 9 11 11
12 13 15 13 14 12 11 12 13 11 12 15 14 13 9 10 13 14 12 11 12 10 10 11 10 10 11 12 12 12 12 11 10 11 13 12 13 17 16 15 13 13 12 9 7 5 4 7 8 9 7 7 7 7 7 5 3 10 9 4 5 5 7 6 5 4 4 3 3 4 3 4 3 3 3 3 3 4 4 4 4 4 5 5 5 5 6 7 7 8 8 9 9 9 9 9 10
11 11 17 12 10 14 14 12 13 8 11 14 16 14 11 10 14 15 13 9 8 9 11 7 6 7 8 10 11 12 14 13 13 14 14 12 12 15 17 16 13 12 12 9 8 7 9 8 7 6 6 6 5 7 6 5 6 12 4 5 5 5 5 6 6 5 3 3 3 3 4 3 3 3 2 4 3 4 4 4 4 5 5 5 5 5 6 7 8 8 9 9 9 8 8 8 10
8 12 17 9 9 6 10 12 11 11 11 11 15 19 13 10 11 16 17 14 14 12 13 13 11 9 8 10 11 13 14 14 14 13 14 13 14 13 15 15 12 13 12 11 10 7 6 7 6 5 5 5 5 5 4 6 11 6 4 5 6 5 6 5 4 3 4 3 3 2 3 3 2 2 3 4 3 4 4 4 5 5 5 6 6 6 7 8 9 9 9 9 10 9 8 8 8
13 11 18 10 8 9 10 10 10 13 11 13 15 14 13 11 11 13 18 18 18 17 14 16 16 13 13 11 12 13 14 14 13 13 13 12 12 13 11 11 12 12 12 12 10 7 5 5 5 6 6 2 1 3 3 9 6 4 5 6 6 5 4 4 4 4 3 3 4 2 2 3 2 3 4 4 5 6 6 6 6 6 6 6 6 7 8 8 9 9 9 9 10 10 8 7 8
6 5 12 13 11 10 8 9 9 10 8 12 14 17 15 11 11 13 14 15 16 16 13 12 15 17 16 14 13 12 12 14 12 13 14 14 13 14 14 14 13 13 11 10 8 9 5 7 6 5 4 5 4 4 2 2 3 4 6 6 5 6 5 4 4 3 3 2 3 2 2 3 4 4 3 4 6 6 5 6 5 6 6 6 7 7 7 8 8 8 9 10 10 10 9 9 8
9 10 10 12 11 10 9 9 10 11 11 14 17 16 19 14 10 13 13 14 16 17 19 17 14 13 11 10 9 11 12 12 13 13 14 15 14 13 14 16 14 14 13 11 8 8 7 6 6 8 5 6 5 6 4 5 4 6 7 7 5 4 4 4 4 4 3 3 3 2 3 3 4 4 3 4 6 6 5 6 6 6 7 7 7 7 6 7 8 8 8 8 9 10 9 10 9
12 12 13 14 11 8 10 10 11 12 10 11 17 18 14 16 12 9 12 14 14 15 16 20 20 18 13 13 13 11 12 12 11 12 14 14 14 14 13 16 15 15 12 12 12 11 9 4 5 6 8 5 7 9 9 7 6 7 6 5 4 3 4 5 5 4 4 3 3 3 3 4 4 4 4 6 6 7 6 6 6 6 6 6 7 7 7 8 7 8 8 9 9 10 10 10 9
15 14 14 14 13 12 11 13 8 9 10 10 15 19 14 8 14 11 13 13 14 15 14 19 23 21 20 18 14 11 10 11 12 13 13 14 14 13 15 16 17 13 14 14 13 13 11 8 7 8 8 7 10 9 7 7 7 6 5 5 5 5 5 5 5 4 4 4 4 5 4 4 4 3 5 6 6 7 6 6 6 7 7 7 7 8 8 8 8 8 9 9 10 9 10 11 11
15 12 13 12 11 10 10 11 11 11 9 12 11 14 11 12 7 12 11 12 12 15 14 13 18 20 19 17 17 13 13 9 13 13 14 15 15 15 14 14 16 16 15 13 11 13 12 12 12 13 14 11 8 8 7 8 6 5 5 5 5 5 5 5 5 4 4 5 5 5 5 4 4 5 5 6 6 6 6 6 7 7 7 7 8 8 7 7 8 8 8 10 10 10 11 11 11
14 13 11 13 14 9 10 6 10 11 10 11 9 10 10 10 7 8 12 10 8 8 14 12 19 16 16 14 16 17 15 15 13 14 14 15 16 14 14 13 15 15 17 15 14 12 12 12 13 12 12 11 9 9 8 7 6 5 5 6 6 6 6 6 5 5 4 5 6 5 5 5 5 5 5 5 6 6 6 7 7 8 8 7 8 8 8 8 9 9 9 8 9 8 9 11 10
13 14 15 13 11 11 7 6 2 6 8 11 6 9 7 7 5 4 4 11 11 9 7 9 16 19 19 14 17 16 13 15 15 15 14 14 14 13 12 13 13 15 14 14 14 14 14 12 12 12 11 10 9 8 8 7 6 6 7 7 7 7 7 7 6 7 7 6 5 6 6 7 6 6 5 5 5 6 7 7 7 7 8 8 8 8 8 8 9 8 7 9 10 9 9 10 10
11 14 13 10 12 14 9 9 6 8 9 7 13 12 12 13 9 11 12 12 12 13 13 12 16 12 14 15 15 15 16 15 15 16 15 15 13 14 12 12 13 14 16 15 14 13 12 11 12 12 11 11 9 8 8 7 7 7 8 8 7 7 7 6 6 7 6 6 6 6 6 6 6 5 5 4 6 7 7 8 7 7 7 8 8 7 8 8 7 7 9 8 9 9 9 9 10
12 13 9 13 11 12 10 5 11 12 11 9 15 15 13 15 9 12 17 16 15 14 14 15 17 14 14 14 17 18 16 15 16 16 15 14 13 14 13 14 14 14 14 16 14 14 13 13 12 11 10 10 9 7 7 7 7 6 6 6 7 7 7 6 6 7 7 6 7 8 7 7 6 6 6 6 6 7 7 7 7 7 7 8 8 8 8 8 9 8 8 9 11 11 10 10 9
17 12 15 15 6 10 10 9 8 9 10 9 13 16 10 11 12 14 15 16 15 16 16 15 16 21 16 17 18 18 17 16 16 16 16 13 14 15 14 13 14 14 15 14 14 13 15 13 13 12 10 9 8 8 7 7 6 6 7 7 7 7 7 7 7 7 7 7 8 8 8 7 7 6 6 6 6 7 6 7 6 7 8 8 8 8 8 8 8 8 9 9 10 10 10 10 10
15 11 14 13 8 8 8 8 11 10 8 9 7 11 10 10 10 13 14 15 15 15 15 14 14 17 18 18 18 16 18 17 16 16 16 15 14 14 13 13 14 14 14 14 13 14 13 12 13 12 11 10 8 7 7 6 6 7 7 7 7 7 8 7 8 8 8 8 8 7 7 7 7 7 6 7 7 6 9 8 8 8 8 8 9 8 8 8 9 10 9 9 9 11 11 10 10
13 10 11 12 12 13 14 12 10 11 10 8 8 9 7 9 9 11 14 14 14 15 15 14 14 17 16 15 16 17 17 18 17 16 16 16 16 15 14 13 14 14 14 14 13 14 13 12 11 11 10 9 8 7 7 7 6 6 7 7 7 7 8 8 8 8 8 8 8 7 7 7 7 6 6 8 7 5 6 8 6 8 8 9 9 9 9 8 9 9 9 7 9 10 11 11 10
Wind_Direction
276 262 283 290 279 276 283 271 271 253 238 242 248 237 248 225 250 286 281 288 280 100 334 345 6 315 329 0 16 126 47 39 347 336 306 101 157 137 132 114 119 129 132 126 124 129 128 127 128 127 128 128 126 124 125 124 122 121 123 125 129 129 127 128 125 118 115 111 108 105 108 103 99 98 97 97 99 108 114 115 107 98 95 94 95 94 96 102 106 90 83 77 71 69 67 73 79
279 284 278 265 268 279 274 303 276 280 275 273 266 276 279 286 234 206 259 267 268 45 32 355 339 338 333 354 293 124 98 50 36 86 92 133 139 133 115 120 127 132 134 130 132 130 126 130 129 128 128 130 129 127 128 126 123 124 125 129 130 131 130 126 123 118 114 111 107 107 101 96 92 88 83 78 70 63 68 99 107 105 105 101 97 97 99 106 94 89 79 71 65 59 55 54 67
301 291 256 234 247 250 280 273 264 264 263 258 258 250 246 238 249 269 261 265 52 54 345 0 314 282 243 189 219 235 110 76 99 111 111 138 141 138 127 121 124 130 133 136 131 127 126 129 130 129 129 132 132 130 129 128 129 128 127 130 133 132 129 128 124 120 114 110 108 103 98 95 91 86 81 78 73 70 67 62 89 110 104 105 106 115 106 105 100 85 74 63 58 53 47 45 51
281 276 275 269 268 234 249 256 250 256 261 264 270 266 261 269 260 282 265 25 26 330 304 284 295 72 300 296 74 65 109 58 76 117 124 156 146 145 134 122 126 139 142 137 129 125 123 132 131 131 133 132 132 130 131 131 129 130 131 132 134 135 131 127 124 120 116 112 107 103 100 98 95 91 87 84 82 80 74 67 59 54 52 56 76 121 122 113 115 100 73 59 50 44 43 41 41
268 251 249 260 270 257 253 243 258 253 249 250 257 259 260 261 266 239 8 36 325 278 284 305 279 141 346 289 119 239 102 145 145 134 135 133 129 143 135 131 143 146 146 135 124 121 125 132 133 133 133 134 133 133 132 131 133 134 134 135 137 136 131 128 126 120 118 112 107 106 104 100 95 90 87 84 83 85 84 77 64 56 59 52 38 39 63 138 105 91 72 57 50 43 41 42 44
243 257 212 247 241 310 272 256 246 247 254 265 266 265 274 283 297 29 311 327 289 264 285 287 284 264 196 49 26 113 159 181 124 126 129 136 142 135 135 146 150 147 140 122 122 127 129 133 135 135 135 135 136 135 133 135 135 137 137 137 139 135 130 131 127 122 118 114 110 106 102 100 94 91 90 91 94 94 94 94 84 70 59 49 40 36 94 105 97 74 71 57 49 44 44 46 54
233 221 220 212 246 253 248 250 254 258 254 252 255 264 269 274 326 313 227 269 248 272 268 273 263 231 235 121 86 53 35 90 161 140 135 136 134 138 145 151 153 137 124 120 126 125 127 133 134 137 137 136 136 134 136 136 138 137 138 138 137 132 132 131 128 125 119 116 112 108 106 101 98 97 93 90 89 90 94 94 102 99 72 55 41 52 124 94 72 72 70 59 47 47 55 72 80
260 267 199 218 235 210 232 243 251 254 252 254 261 264 259 259 3 304 284 274 268 228 192 252 257 260 84 184 104 74 75 5 93 113 124 135 137 142 155 154 137 132 133 125 117 118 128 132 135 136 136 137 136 137 136 138 139 139 137 137 133 132 134 133 129 126 123 117 114 111 106 102 98 97 97 94 90 92 89 89 95 94 88 71 58 113 95 74 80 75 77 59 46 53 67 83 101
225 233 260 249 238 234 237 240 250 245 256 258 260 263 276 285 301 292 279 280 270 255 270 213 224 246 136 101 78 72 64 84 103 116 130 132 140 149 150 144 139 142 136 121 115 125 129 134 135 136 137 138 137 138 135 137 139 140 137 135 133 134 134 131 128 127 122 118 116 113 108 103 99 96 93 88 84 85 87 90 92 96 93 88 40 215 111 95 77 77 65 35 39 37 56 102 110
226 218 210 236 251 245 246 243 242 244 253 246 250 258 258 253 266 221 272 251 235 260 253 245 222 245 118 101 107 126 107 105 118 126 133 137 144 145 140 139 145 140 122 115 129 125 125 136 134 135 137 138 139 136 129 132 136 137 136 131 132 135 133 130 132 126 123 120 117 114 109 104 102 101 96 90 88 88 87 87 91 95 103 119 116 61 164 131 99 73 19 44 356 12 36 106 141
227 196 254 233 228 244 243 249 246 238 243 249 249 246 261 272 283 261 245 268 255 247 243 166 217 244 127 126 104 90 118 118 134 133 138 143 141 141 141 144 142 136 118 129 127 121 130 135 136 136 137 136 133 123 124 128 121 119 125 129 132 132 131 130 130 127 125 121 117 115 111 107 103 98 95 92 86 85 89 89 92 102 102 111 135 148 170 158 145 37 330 350 352 341 355 163 157
225 209 205 235 239 240 243 250 252 256 251 247 237 242 255 263 241 228 246 250 239 233 239 149 243 222 158 135 127 125 121 134 133 135 140 143 143 140 143 143 142 127 132 133 126 129 129 134 137 136 130 129 123 120 117 114 115 118 117 122 127 130 132 130 128 127 126 122 118 113 111 109 106 102 96 92 94 97 92 92 93 91 104 113 133 167 175 188 121 357 335 320 329 332 323 308 224
239 214 213 235 241 244 252 257 260 264 264 245 227 232 238 238 247 238 245 247 243 243 219 209 252 270 188 143 116 131 146 146 142 141 145 148 142 140 142 143 140 139 139 135 136 130 134 135 133 142 133 122 113 111 114 114 114 117 121 128 130 131 132 131 129 130 129 124 119 115 113 112 111 110 107 100 94 88 94 100 100 106 103 120 125 112 134 53 276 278 282 297 314 321 316 308 274
229 234 228 237 241 256 256 257 252 249 239 251 243 201 111 238 239 253 240 241 235 236 244 215 222 194 83 108 141 148 152 151 145 149 150 144 142 142 143 145 142 145 145 135 138 140 136 131 134 133 140 141 137 122 110 111 120 122 127 132 132 133 133 133 132 133 131 126 122 122 123 123 121 119 117 112 104 101 106 97 100 108 117 114 129 146 138 168 212 204 295 302 301 309 313 298 291
233 236 251 250 251 244 241 252 251 243 252 252 62 118 187 238 271 237 244 246 242 242 239 240 217 213 170 189 165 162 155 153 150 154 142 142 143 140 144 143 141 150 148 140 144 150 139 131 129 140 145 142 143 145 150 127 124 127 130 136 137 139 138 138 135 138 133 132 136 140 138 138 137 132 132 132 125 109 101 107 81 89 109 131 132 143 143 140 181 201 137 316 304 301 298 296 281
234 238 238 247 241 247 241 236 243 263 266 257 99 123 197 200 212 236 224 255 275 247 225 223 224 221 178 199 162 152 149 151 153 147 142 143 143 142 144 146 147 152 145 141 150 149 138 135 143 142 141 143 151 146 145 150 136 134 138 141 138 141 142 141 141 143 140 147 153 148 149 147 144 139 142 138 135 132 114 80 105 99 94 115 133 147 151 159 165 188 207 254 279 276 283 276 270
235 256 242 232 244 237 243 249 234 237 239 104 149 158 233 230 194 231 271 245 248 242 213 226 204 208 247 57 136 143 142 146 145 146 147 146 148 145 149 150 153 152 144 148 152 137 136 144 149 136 145 148 141 137 146 148 140 143 143 136 139 141 142 146 149 154 159 164 160 162 169 167 149 135 170 129 163 127 111 130 128 140 137 126 139 141 159 158 171 185 210 227 247 254 249 262 258
207 223 233 234 237 240 239 245 250 251 266 136 197 181 217 238 203 222 194 232 238 247 219 208 216 200 65 69 142 136 140 146 150 152 155 151 152 150 152 154 159 154 151 151 144 144 144 148 146 139 144 142 138 143 145 146 148 167 151 149 151 148 154 159 168 169 167 168 174 169 177 169 151 154 152 154 144 130 138 140 162 162 169 160 164 170 161 176 182 194 203 220 229 238 250 249 221
215 222 227 239 231 240 251 255 248 242 240 171 172 131 240 251 31 212 236 210 214 229 202 217 197 120 92 106 123 139 145 146 155 161 159 155 158 156 154 154 157 153 154 150 148 151 150 148 145 142 141 140 147 143 148 146 159 166 154 163 156 167 166 177 175 181 172 167 172 176 173 165 188 100 75 34 24 85 137 173 168 191 175 187 183 179 180 182 190 192 203 208 219 232 241 239 249
216 235 228 231 246 247 239 249 274 272 328 264 168 177 197 250 233 64 248 259 194 222 206 203 183 152 117 131 136 150 155 151 159 165 161 160 160 157 153 154 154 158 155 155 151 152 152 148 144 139 140 144 153 149 142 157 165 160 162 160 164 173 171 182 178 168 168 174 163 170 190 146 134 156 94 192 207 187 151 171 181 196 204 198 201 200 197 195 195 202 204 209 214 222 230 242 241
195 229 235 235 220 246 193 240 256 260 263 254 233 253 235 236 232 246 251 246 229 215 216 194 181 162 144 146 154 155 163 158 162 164 163 163 161 158 153 155 159 159 158 151 151 151 153 146 144 143 146 160 161 149 154 164 159 160 171 163 161 170 166 168 171 173 169 166 160 215 162 184 182 205 173 184 212 199 154 178 185 197 203 207 196 223 207 201 197 204 204 211 227 224 233 238 254
229 223 236 249 245 249 284 208 234 246 241 263 258 241 231 238 251 240 240 254 240 212 198 192 183 166 161 151 151 166 165 163 167 166 166 165 165 162 157 158 158 157 153 156 151 148 149 150 148 142 156 174 155 158 160 154 162 170 169 161 165 170 175 175 170 182 160 177 193 180 102 193 195 224 188 287 255 176 244 188 164 210 211 195 216 219 251 184 204 225 212 206 235 233 231 251 263
234 224 231 237 254 256 246 215 220 239 232 228 234 230 248 276 264 252 266 252 264 220 210 187 179 172 156 152 156 171 170 166 169 170 168 167 162 160 156 158 159 157 161 152 155 149 150 149 149 150 159 170 164 156 153 154 178 162 168 161 167 169 179 170 185 165 156 175 182 152 194 185 207 184 169 206 200 246 218 169 66 275 321 93 262 15 285 282 326 318 321 280 277 287 272 258 245
225 242 210 230 244 240 243 249 195 217 242 246 248 260 255 247 247 221 234 232 256 321 193 169 158 165 148 159 164 166 171 171 171 171 167 165 161 158 156 156 157 160 153 152 153 152 149 150 152 151 160 167 159 160 153 167 170 159 164 160 179 151 166 175 161 172 144 165 171 183 196 198 176 164 208 188 227 239 263 324 46 307 277 285 29 219 287 12 279 285 285 302 289 275 279 274 264
217 234 244 226 227 227 232 230 229 234 243 243 241 241 240 243 252 261 244 240 229 192 114 151 140 148 147 157 164 167 173 171 173 173 162 164 156 148 151 156 161 157 148 154 152 150 150 152 153 157 163 168 162 159 167 170 155 165 156 168 173 143 179 173 161 146 172 165 186 172 185 200 186 187 224 213 267 316 293 276 273 235 257 263 237 245 242 266 256 277 278 273 273 289 288 272 268
219 231 239 242 233 239 231 237 241 241 241 234 234 235 238 241 245 252 256 238 201 191 152 171 155 158 161 159 168 169 175 172 171 169 163 163 157 152 152 160 156 150 151 150 152 153 153 157 155 157 174 166 160 163 175 155 159 158 160 173 145 171 168 164 144 177 169 152 157 168 166 192 276 263 167 273 280 294 288 270 265 282 289 290 291 287 285 279 291 267 268 266 268 270 257 282 281
197 223 237 241 224 225 225 234 229 227 234 230 236 231 229 232 224 245 221 220 157 188 181 175 168 164 166 165 171 176 173 170 170 166 163 157 155 157 160 160 160 154 151 156 155 155 152 161 155 169 172 159 150 176 164 150 163 160 163 156 149 183 146 148 177 165 161 157 161 168 183 182 211 243 228 280 241 247 267 274 270 289 290 297 312 304 314 305 294 288 280 281 282 282 281 272 270
276 249 227 236 238 227 234 223 235 227 222 224 232 236 233 233 209 249 183 155 172 192 174 166 179 174 171 168 172 171 171 171 168 161 159 157 161 162 163 164 158 154 153 155 159 154 157 161 162 176 156 158 165 169 151 159 166 159 156 155 168 151 153 168 167 163 162 165 159 167 167 184 190 169 269 244 281 278 273 306 315 318 311 309 313 322 309 306 295 294 292 289 280 278 285 284 283
238 230 243 226 227 231 227 232 219 223 236 210 220 237 228 227 226 225 144 164 174 187 167 172 179 167 167 169 164 168 169 166 165 164 163 167 165 163 162 162 152 155 159 157 155 158 162 166 164 162 159 158 177 157 157 164 164 157 168 157 154 150 169 164 161 164 169 156 154 162 165 178 180 195 243 325 318 313 310 305 311 307 318 326 322 309 304 293 287 283 284 281 274 274 275 277 275
232 219 241 232 221 228 224 223 227 218 224 218 196 223 219 221 221 206 145 175 179 180 166 173 171 167 165 168 169 169 169 168 168 165 166 167 167 162 159 161 160 162 155 158 154 160 166 162 159 159 158 168 170 163 159 169 166 162 159 157 150 167 168 166 166 167 169 160 160 161 162 152 158 219 124 323 312 308 303 309 316 314 329 324 299 282 276 273 283 290 291 282 280 282 280 276 274
218 220 221 243 229 226 210 210 206 221 206 209 200 232 224 210 194 74 24 255 183 170 168 170 168 167 165 172 172 172 170 171 171 164 166 164 163 165 161 162 163 159 156 155 156 159 165 157 155 159 159 172 168 164 172 168 168 162 162 158 162 172 165 168 167 167 163 163 168 146 146 145 160 161 145 256 305 299 298 291 309 332 342 307 288 289 289 288 282 286 294 297 302 292 289 287 288
215 219 217 220 241 230 205 193 199 207 193 199 203 229 242 191 118 135 126 134 113 156 168 172 172 175 170 174 176 173 170 172 168 162 162 166 160 161 164 164 166 160 161 156 152 158 161 155 162 158 164 162 173 165 176 162 168 158 160 161 165 167 168 175 170 158 164 161 144 139 144 146 172 155 142 205 255 283 310 320 322 312 316 287 300 301 291 289 298 293 294 295 294 292 293 291 289
209 223 218 214 216 243 196 176 194 203 192 194 206 222 221 90 126 129 159 154 154 156 174 171 171 172 173 177 177 172 172 169 171 169 171 170 164 158 161 168 168 159 155 148 156 158 158 156 163 160 165 161 166 172 163 173 172 162 159 157 156 192 193 200 160 159 153 149 147 135 135 139 125 138 111 302 280 304 303 307 313 320 305 311 308 303 296 299 301 296 291 290 294 294 294 293 290
206 209 231 217 210 223 205 160 200 192 210 192 204 229 252 127 132 140 146 162 163 167 171 169 174 179 178 175 172 168 184 175 180 173 171 169 160 154 152 159 161 159 144 154 157 161 157 160 164 163 161 164 165 167 164 168 151 88 345 164 162 197 200 162 169 152 144 141 133 125 124 131 141 110 336 346 328 309 309 306 325 330 325 323 314 311 308 307 304 305 304 303 304 304 297 299 299
200 195 217 217 212 220 215 179 182 202 203 210 195 225 158 135 129 126 188 176 179 162 170 182 182 181 173 160 163 184 200 190 173 164 157 152 146 149 151 160 159 149 149 155 157 161 157 161 161 158 158 163 158 155 146 107 82 100 199 262 164 236 182 165 162 150 136 127 112 113 124 121 121 49 32 1 349 330 324 337 336 345 336 331 320 311 312 311 317 318 311 309 303 298 301 299 298
210 202 205 228 203 203 229 170 182 200 184 214 203 213 170 146 147 143 171 187 180 178 185 183 182 176 166 154 84 27 322 360 340 136 108 64 140 173 162 152 152 148 147 153 156 160 156 156 150 144 140 138 129 106 80 73 149 188 170 220 228 212 196 156 148 124 122 112 116 115 103 92 69 59 31 18 349 351 338 341 346 340 336 322 326 323 322 327 326 318 316 315 308 301 297 298 298
215 204 210 223 214 207 220 193 168 188 190 212 213 211 202 170 157 161 157 206 204 171 191 187 175 169 164 104 92 82 58 53 41 56 58 61 33 17 5 60 84 86 67 146 150 152 152 144 121 122 142 109 139 113 119 134 175 263 181 204 213 230 178 132 124 120 113 103 101 99 89 87 72 49 17 21 350 347 341 338 341 334 335 329 330 323 321 318 317 316 312 310 310 309 304 305 303
242 204 208 214 215 210 203 152 172 184 213 200 221 209 223 184 169 174 168 184 194 192 190 185 175 173 159 139 123 110 114 120 130 105 114 111 130 123 102 50 74 60 329 308 138 118 107 99 81 44 139 114 132 126 129 111 242 267 209 219 196 192 163 148 131 116 102 100 102 86 82 64 46 50 27 15 2 352 345 343 335 330 333 325 324 321 316 311 314 314 319 312 312 311 309 309 306
239 223 204 221 204 225 177 156 177 192 215 209 206 218 221 193 148 155 178 163 189 191 178 183 179 167 153 156 135 122 123 126 125 114 112 112 125 139 102 106 113 120 187 221 41 123 97 104 153 171 146 150 146 128 142 143 319 249 254 256 213 134 85 96 111 108 105 100 88 83 64 53 50 48 42 25 10 350 343 335 333 333 326 330 322 322 321 318 316 318 316 315 316 314 306 305 312
223 225 212 213 202 219 166 159 167 200 208 221 198 217 218 179 156 155 188 168 184 183 182 174 191 167 156 155 148 151 144 139 143 141 127 126 130 133 110 109 130 159 156 130 185 145 132 127 138 145 155 162 159 172 148 80 238 279 227 210 174 125 113 111 101 109 99 103 96 74 71 62 55 40 32 353 2 354 347 342 340 337 336 333 326 320 322 317 325 322 322 323 319 312 316 313 320
219 229 221 211 214 190 186 174 196 198 207 241 211 206 220 186 197 175 172 172 170 182 183 175 168 160 149 141 151 159 146 144 147 147 146 149 150 148 138 132 156 156 127 164 171 158 150 140 144 161 164 171 169 149 156 141 225 242 245 167 106 113 124 124 121 110 116 101 103 89 75 54 32 37 13 7 1 354 347 351 343 339 334 335 328 325 325 327 322 324 326 322 321 315 313 315 314
207 225 238 220 221 175 211 180 184 189 207 210 241 199 218 179 205 179 184 164 165 149 162 167 161 156 154 158 163 163 146 151 152 155 160 157 137 129 134 141 142 130 149 162 146 149 150 141 164 154 167 165 162 164 159 117 170 273 236 166 150 138 137 138 133 131 122 120 97 91 84 41 37 28 13 1 3 353 354 352 351 340 336 328 326 325 317 317 320 318 325 320 313 315 318 312 317
210 199 232 238 233 184 199 183 185 191 205 190 218 216 199 169 208 175 200 180 158 157 169 163 169 163 168 169 165 165 165 155 158 152 148 158 142 136 144 154 160 159 158 148 150 126 128 157 164 160 166 168 159 161 157 131 216 251 236 162 140 137 126 118 110 89 91 94 103 92 73 68 23 34 29 358 10 9 5 353 345 336 335 325 327 318 316 320 323 326 325 319 321 320 322 319 321
214 180 205 233 266 197 195 181 206 205 209 188 205 224 226 198 202 199 163 195 176 177 173 159 166 168 171 175 166 166 172 160 162 160 153 155 155 145 151 157 163 156 141 134 129 132 152 151 160 161 175 161 149 165 160 156 210 233 174 141 119 113 107 107 103 106 94 81 98 76 74 68 46 35 20 34 15 10 8 350 345 344 341 337 333 330 329 331 328 328 329 318 323 322 325 327 328
210 172 198 197 221 194 181 201 202 221 188 214 198 213 244 219 202 207 164 187 207 203 185 180 179 177 189 189 178 182 173 165 163 159 155 151 156 156 148 154 147 134 132 121 124 136 161 154 151 153 176 156 159 168 161 184 225 199 163 126 109 104 106 111 117 122 120 102 76 78 72 60 66 44 42 38 16 10 10 356 356 351 348 345 343 334 343 334 333 331 328 325 329 327 332 336 332
225 192 186 183 198 206 205 221 211 220 208 216 201 201 229 224 193 202 190 195 192 200 196 192 178 176 201 193 195 183 171 163 167 152 153 145 151 151 145 137 131 127 127 118 118 128 146 135 128 168 150 139 226 146 172 220 177 121 116 107 97 102 116 116 123 123 114 106 96 81 74 87 55 63 46 35 14 17 13 11 3 2 354 357 347 350 345 342 337 333 329 329 332 332 333 340 336
178 140 182 187 197 208 211 234 226 230 210 231 223 203 221 237 195 199 201 203 198 187 193 201 182 177 178 176 190 185 170 166 165 151 151 148 142 142 144 138 131 122 114 113 138 139 153 139 169 188 147 163 173 109 257 236 147 116 105 92 90 112 113 134 141 117 112 104 108 101 98 82 57 46 32 42 35 16 16 20 8 1 4 4 1 353 351 338 337 336 332 336 339 340 340 342 340
167 184 195 188 196 205 210 216 233 238 220 200 227 210 205 236 200 188 200 203 204 187 180 186 191 185 183 183 184 182 163 166 161 158 156 150 146 153 149 138 133 129 121 133 144 134 141 153 157 140 193 158 144 125 188 202 134 101 84 77 85 101 130 128 116 118 119 107 98 101 95 80 70 70 32 34 34 16 13 18 12 8 15 10 4 354 348 341 338 334 339 339 344 342 351 348 348
188 191 199 192 185 189 199 201 208 224 228 200 218 215 203 219 249 183 195 195 200 204 185 187 185 180 178 187 177 193 160 160 160 163 154 154 152 156 151 142 140 138 125 143 150 140 138 178 165 146 150 163 139 169 186 143 105 85 92 96 100 109 109 114 120 127 124 112 88 70 57 67 59 50 43 37 26 19 20 20 16 17 14 11 5 357 349 346 340 338 342 349 349 349 352 351 354
193 197 196 194 189 184 203 201 210 217 223 234 206 226 227 207 235 226 195 195 202 208 202 180 179 172 179 183 169 178 158 170 169 165 157 153 155 159 151 152 147 134 143 158 158 145 149 161 164 162 155 187 166 158 127 111 96 96 106 113 119 122 115 114 115 111 88 76 76 78 70 66 63 50 45 41 29 23 21 21 24 24 17 14 6 359 353 355 349 342 349 359 358 357 355 357 7
200 204 206 208 201 190 195 203 198 210 204 210 223 212 216 217 200 211 163 185 207 205 207 192 173 169 169 167 153 172 164 169 172 174 162 159 160 155 158 156 150 142 158 160 151 153 148 155 165 161 155 164 136 117 115 109 111 118 116 120 119 122 117 105 89 70 57 72 70 82 71 58 55 54 43 40 33 34 29 32 33 26 19 12 9 9 2 353 351 345 6 10 2 360 359 8 8
198 207 218 213 217 173 209 201 221 199 212 199 214 238 192 215 34 284 154 155 192 206 194 199 137 155 161 175 155 167 174 171 179 170 158 163 157 159 161 159 149 141 155 149 151 153 148 148 152 160 140 127 121 128 123 119 111 101 93 95 105 102 97 106 111 102 90 68 75 79 76 67 51 53 51 40 40 35 35 32 35 28 21 14 14 12 2 358 353 12 13 14 6 2 4 14 10
178 204 210 211 219 204 198 210 336 334 223 215 197 217 199 216 204 200 131 171 175 188 198 138 148 164 183 168 152 163 166 173 171 161 155 155 155 162 161 154 146 145 150 145 146 150 145 150 149 142 119 119 127 121 117 110 108 115 102 99 103 108 105 88 83 90 89 84 84 78 71 65 65 56 59 50 45 46 41 36 35 28 24 20 19 16 14 13 15 20 10 14 13 6 10 19 13
171 209 201 207 218 236 209 213 184 226 208 210 182 195 214 213 205 178 200 196 193 193 195 190 147 162 183 156 161 166 171 170 169 151 155 153 157 160 152 150 147 148 140 137 138 138 141 136 130 122 127 129 127 120 115 117 114 107 109 104 98 96 94 93 101 104 102 91 85 82 76 69 60 58 58 50 50 47 44 40 36 34 31 32 30 25 23 25 24 26 21 20 12 12 15 17 19
219 200 182 208 183 217 214 205 205 201 211 216 194 196 216 221 213 175 194 199 201 196 198 197 163 156 175 172 167 168 166 159 159 153 157 159 158 159 157 156 154 147 140 137 141 138 136 135 128 128 127 123 119 116 118 115 115 111 109 108 104 98 97 94 90 90 86 86 83 76 71 71 67 62 59 57 56 56 53 53 45 43 39 38 34 28 23 26 27 27 15 19 20 20 21 18 21
234 205 201 215 224 198 214 209 201 203 206 219 199 208 214 211 221 186 192 197 200 198 195 194 190 168 188 165 165 169 157 163 162 156 161 158 160 159 155 151 146 144 138 132 130 131 130 128 127 125 124 123 122 120 117 111 109 115 113 108 101 95 89 96 98 92 87 81 78 81 77 70 67 65 65 60 59 61 64 56 51 39 40 39 34 28 23 21 28 29 25 25 24 22 25 24 24
198 217 205 192 205 196 235 191 225 192 210 201 223 213 213 220 217 183 197 198 202 199 192 195 186 172 178 171 170 166 163 163 162 160 161 164 163 156 150 146 141 135 132 134 133 129 127 130 131 132 131 128 124 120 112 113 118 117 115 106 104 104 99 98 93 90 90 87 84 80 76 77 72 68 68 65 59 54 53 47 39 35 31 36 35 32 26 22 26 31 32 29 26 25 29 30 23
194 202 209 195 184 187 201 207 206 222 202 202 203 227 225 208 220 203 199 201 200 196 193 186 179 174 172 170 167 165 168 166 163 165 164 163 159 155 147 142 142 139 141 141 134 132 135 136 135 132 130 127 126 123 119 118 110 109 108 109 109 112 110 106 102 94 90 85 81 77 81 80 74 69 66 66 64 58 58 53 48 34 34 30 36 38 33 33 31 31 35 33 28 28 26 28 27